ATLAS 75E DEB

基本信息
目录编号:
25842
目录名称:
ATLAS 75E DEB
国际标识:
1983-072C
轨道中心:
EARTH
物体状态:
在轨
发射日期:
1983-07-14 UTC
轨道信息
数据来源: 国际轨道数据
星历时间: 2026-03-29T00:20:34+0800
半长轴: 16992.909km
偏心率: 0.5134538
轨道倾角: 65.315°
近地点辐角: 99.124°
升交点赤经: 189.757°
平近点角: 14.714°
近地点: 1889.698km
远地点: 19339.846km
周期: 367.419分钟
每日圈数: 3.919234
详细信息
发射场:
AFWTR
轨道高度:
LEO
数据来源:
AOE Integration Group
参考系:
TEME
时间系统:
UTC
历元类型:
SGP4
2D轨道图
3D轨道图
轨道高度分析图
轨道倾角分析图
轨道综合分析图
查看轨道综合分析图